Location: Marcé
(47.5801°N, 0.3280°W)
Time: 18:24:38
(UTC+01:00)

Vanguard 1 Rocket - All Passes

Search period start: 06 December 2021 00:00
Search period end: 16 December 2021 00:00
Orbit: 650 x 4226 km, 34.3° (Epoch: 04 December)

Date Brightness Start Highest point End Pass type
(mag) Time Alt. Az. Time Alt. Az. Time Alt. Az.
06 Dec - 02:23:31 10° SSW 02:31:18 31° SSE 02:44:28 10° E visible
06 Dec - 04:45:52 10° WSW 04:57:09 50° S 05:17:32 10° ESE visible
06 Dec - 07:10:44 10° W 07:25:39 45° SSW 07:48:29 10° SE visible
06 Dec - 09:39:07 10° W 09:54:35 26° SW 10:13:12 10° S daylight
07 Dec - 01:15:00 10° S 01:20:33 19° SE 01:28:35 10° E visible
07 Dec - 03:35:33 10° SW 03:44:54 44° SSE 04:02:02 10° E visible
07 Dec - 05:59:22 10° WSW 06:12:15 49° S 06:34:10 10° ESE visible
07 Dec - 08:25:44 10° W 08:41:09 34° SSW 09:02:05 10° SSE daylight
07 Dec - 11:00:59 10° WSW 11:09:11 13° SW 11:17:55 10° SSW daylight
08 Dec - 02:25:47 10° SSW 02:33:23 34° SSE 02:46:36 10° E visible
08 Dec - 04:48:31 10° WSW 04:59:23 49° S 05:19:09 10° ESE visible
08 Dec - 07:13:33 10° W 07:27:41 40° SSW 07:49:19 10° SE visible
08 Dec - 09:42:58 10° W 09:56:15 21° SW 10:12:08 10° S daylight
09 Dec - 01:16:49 10° S 01:22:32 22° SE 01:31:14 10° E visible
09 Dec - 03:38:07 10° WSW 03:47:09 44° SSE 04:03:51 10° ESE visible
09 Dec - 06:02:07 10° WSW 06:14:27 45° SSW 06:35:22 10° SE visible
09 Dec - 08:28:56 10° W 08:43:01 28° SSW 09:02:00 10° SSE daylight
10 Dec - 00:10:12 10° SSE 00:12:12 11° SE 00:14:27 10° ESE night (unlit)
10 Dec - 02:28:12 10° SW 02:35:35 36° SSE 02:48:39 10° E visible
10 Dec - 04:51:14 10° WSW 05:01:40 46° S 05:20:38 10° ESE visible
10 Dec - 07:16:30 10° W 07:29:44 35° SSW 07:49:50 10° SSE visible
10 Dec - 09:47:54 10° WSW 09:57:59 15° SW 10:09:40 10° SSW daylight
11 Dec - 01:18:54 10° SSW 01:24:39 25° SSE 01:33:41 10° E visible
11 Dec - 03:40:47 10° WSW 03:49:29 44° S 04:05:35 10° ESE visible
11 Dec - 06:04:57 10° W 06:16:40 40° SSW 06:36:19 10° SE visible
11 Dec - 08:32:34 10° WSW 08:44:56 23° SW 09:01:14 10° S daylight
12 Dec - 00:10:55 10° SSE 00:14:12 14° SE 00:18:21 10° ESE night (unlit)
12 Dec - 02:30:45 10° SW 02:37:53 37° SSE 02:50:38 10° ESE visible
12 Dec - 04:54:01 10° WSW 05:04:00 43° S 05:21:58 10° SE visible
12 Dec - 07:19:40 10° W 07:31:51 29° SSW 07:49:55 10° SSE visible
12 Dec - 09:57:37 10° SW 09:59:49 10° SW 10:02:05 10° SW daylight
13 Dec - 01:21:12 10° SSW 01:26:53 28° SSE 01:36:01 10° E visible
13 Dec - 03:43:31 10° WSW 03:51:52 42° S 04:07:15 10° ESE visible
13 Dec - 06:07:56 10° WSW 06:18:56 35° SSW 06:37:00 10° SE visible
13 Dec - 08:36:58 10° WSW 08:46:56 17° SW 08:59:26 10° S daylight
14 Dec - 00:12:32 10° S 00:16:20 17° SE 00:21:25 10° ESE night (unlit)
14 Dec - 02:33:23 10° SW 02:40:17 38° SSE 02:52:35 10° ESE visible
14 Dec - 04:56:53 10° WSW 05:06:24 38° S 05:23:07 10° SE visible
14 Dec - 07:23:11 10° WSW 07:34:01 24° SSW 07:49:26 10° SSE visible
15 Dec - 01:23:40 10° SW 01:29:13 29° SSE 01:38:15 10° ESE visible
15 Dec - 03:46:19 10° WSW 03:54:19 39° S 04:08:47 10° ESE visible
15 Dec - 06:11:06 10° WSW 06:21:15 29° SSW 06:37:19 10° SSE visible
15 Dec - 08:43:34 10° WSW 08:49:00 12° SW 08:55:08 10° SSW daylight
